�������l�o���
Date,Time,MP-1(��Sv/h),MP-2(��Sv/h),MP-3(��Sv/h),MP-4(��Sv/h),MP-5(��Sv/h),MP-6(��Sv/h),MP-7(��Sv/h),MP-8(��Sv/h),����,����(m/s),���J
2020/04/10,00:00,0.697,1.013,0.674,1.219,0.877,0.400,0.696,0.659,��쐼,3.4,��
2020/04/10,00:10,0.699,1.011,0.675,1.221,0.876,0.400,0.697,0.658,��,4.6,��
2020/04/10,00:20,0.700,1.011,0.674,1.217,0.878,0.400,0.698,0.661,��,4.8,��
2020/04/10,00:30,0.699,1.013,0.674,1.218,0.878,0.399,0.697,0.658,��쐼,4.1,��
2020/04/10,00:40,0.698,1.010,0.675,1.219,0.877,0.400,0.697,0.661,��쐼,2.6,�L
2020/04/10,00:50,0.700,1.011,0.674,1.218,0.878,0.400,0.698,0.660,��,2.9,�L
2020/04/10,01:00,0.699,1.009,0.675,1.218,0.877,0.400,0.697,0.661,��쐼,2.5,��
2020/04/10,01:10,0.699,1.011,0.673,1.218,0.876,0.399,0.695,0.660,�쐼,3.4,��
2020/04/10,01:20,0.698,1.013,0.674,1.215,0.877,0.400,0.697,0.659,��쐼,3.8,��
2020/04/10,01:30,0.698,1.011,0.675,1.218,0.879,0.400,0.697,0.660,��쐼,4.1,��
2020/04/10,01:40,0.698,1.010,0.674,1.217,0.877,0.399,0.695,0.658,��쐼,4.0,��
2020/04/10,01:50,0.699,1.009,0.674,1.217,0.877,0.399,0.698,0.659,��쐼,3.6,��
2020/04/10,02:00,0.699,1.011,0.675,1.219,0.877,0.400,0.696,0.659,��쐼,3.5,��
2020/04/10,02:10,0.699,1.011,0.676,1.217,0.878,0.400,0.697,0.660,��쐼,3.4,��
2020/04/10,02:20,0.698,1.012,0.675,1.217,0.878,0.400,0.695,0.659,��쐼,4.1,��
2020/04/10,02:30,0.696,1.009,0.674,1.218,0.876,0.400,0.697,0.660,��쐼,4.4,��
2020/04/10,02:40,0.697,1.011,0.675,1.218,0.878,0.399,0.696,0.658,��쐼,4.3,��
2020/04/10,02:50,0.698,1.010,0.673,1.216,0.878,0.399,0.697,0.659,��쐼,3.7,��
2020/04/10,03:00,0.696,1.013,0.673,1.217,0.876,0.398,0.698,0.659,��쐼,3.4,��
2020/04/10,03:10,0.697,1.010,0.674,1.218,0.878,0.400,0.696,0.658,��쐼,3.1,��
2020/04/10,03:20,0.698,1.011,0.673,1.219,0.877,0.400,0.696,0.661,��쐼,3.2,��
2020/04/10,03:30,0.699,1.010,0.672,1.216,0.877,0.401,0.697,0.659,�쐼,3.2,��
2020/04/10,03:40,0.697,1.010,0.674,1.220,0.877,0.399,0.695,0.660,�쐼,3.3,��
2020/04/10,03:50,0.697,1.011,0.673,1.217,0.876,0.399,0.695,0.661,�쐼,3.9,��
2020/04/10,04:00,0.697,1.011,0.673,1.218,0.875,0.400,0.696,0.660,���쐼,3.1,��
2020/04/10,04:10,0.696,1.010,0.675,1.216,0.876,0.399,0.696,0.659,�k��,4.2,��
2020/04/10,04:20,0.697,1.010,0.672,1.219,0.876,0.400,0.696,0.660,�k��,5.0,��
2020/04/10,04:30,0.696,1.010,0.674,1.218,0.877,0.399,0.694,0.660,���k��,4.7,��
2020/04/10,04:40,0.697,1.009,0.673,1.217,0.876,0.399,0.696,0.660,���k��,3.9,��
2020/04/10,04:50,0.698,1.009,0.673,1.220,0.876,0.399,0.696,0.660,���k��,2.6,��
2020/04/10,05:00,0.696,1.009,0.673,1.219,0.876,0.399,0.696,0.658,���k��,1.9,��
2020/04/10,05:10,0.695,1.009,0.673,1.221,0.876,0.397,0.696,0.660,�k��,1.4,��
2020/04/10,05:20,0.697,1.010,0.674,1.219,0.877,0.399,0.694,0.659,��,0.6,��
2020/04/10,05:30,0.696,1.010,0.672,1.218,0.875,0.398,0.696,0.660,-,CALM,��
2020/04/10,05:40,0.696,1.009,0.670,1.217,0.874,0.399,0.697,0.659,��쐼,0.9,��
2020/04/10,05:50,0.695,1.011,0.674,1.218,0.875,0.399,0.696,0.659,-,CALM,��
2020/04/10,06:00,0.697,1.010,0.673,1.217,0.877,0.399,0.695,0.659,��,1.5,��
2020/04/10,06:10,0.696,1.010,0.674,1.217,0.878,0.398,0.697,0.659,-,CALM,��
2020/04/10,06:20,0.696,1.011,0.673,1.219,0.877,0.399,0.698,0.659,�k�k��,1.7,��
2020/04/10,06:30,0.698,1.011,0.674,1.218,0.878,0.400,0.696,0.660,�k�k��,6.7,��
2020/04/10,06:40,0.698,1.009,0.675,1.219,0.878,0.399,0.697,0.661,�k��,6.2,��
2020/04/10,06:50,0.697,1.012,0.673,1.218,0.877,0.399,0.696,0.660,���k��,6.5,��
2020/04/10,07:00,0.697,1.012,0.675,1.222,0.876,0.399,0.698,0.660,��,7.9,��
2020/04/10,07:10,0.698,1.012,0.672,1.219,0.875,0.399,0.698,0.660,���k��,9.0,��
2020/04/10,07:20,0.698,1.014,0.673,1.219,0.876,0.399,0.697,0.661,��,7.8,��
2020/04/10,07:30,0.700,1.013,0.675,1.218,0.875,0.398,0.696,0.660,���k��,7.3,��
2020/04/10,07:40,0.697,1.012,0.673,1.221,0.878,0.399,0.698,0.661,���k��,8.2,��
2020/04/10,07:50,0.699,1.009,0.675,1.220,0.876,0.396,0.697,0.661,�k��,7.7,��
2020/04/10,08:00,0.699,1.008,0.674,1.222,0.877,0.396,0.696,0.660,�k��,7.9,��
2020/04/10,08:10,0.699,1.010,0.672,1.222,0.879,0.396,0.697,0.661,���k��,8.7,��
2020/04/10,08:20,0.697,1.008,0.674,1.221,0.879,0.397,0.696,0.662,�k��,8.3,��
2020/04/10,08:30,0.698,1.008,0.673,1.220,0.878,0.396,0.694,0.660,���k��,6.3,��
2020/04/10,08:40,0.699,1.007,0.673,1.221,0.878,0.395,0.696,0.659,���k��,7.4,��
2020/04/10,08:50,0.699,1.005,0.674,1.221,0.879,0.396,0.693,0.659,���k��,6.6,��
2020/04/10,09:00,0.699,1.004,0.672,1.222,0.879,0.395,0.694,0.659,���k��,5.9,��
2020/04/10,09:10,0.700,1.006,0.675,1.221,0.879,0.396,0.694,0.657,���k��,7.4,��
2020/04/10,09:20,0.701,1.004,0.675,1.224,0.879,0.396,0.695,0.658,��,9.6,��
2020/04/10,09:30,0.700,1.007,0.677,1.222,0.878,0.394,0.695,0.657,�k��,8.7,��
2020/04/10,09:40,0.700,1.006,0.675,1.220,0.879,0.397,0.695,0.657,�k�k��,8.4,��
2020/04/10,09:50,0.701,1.005,0.674,1.224,0.878,0.398,0.695,0.657,���k��,4.5,��
2020/04/10,10:00,0.700,1.006,0.675,1.222,0.879,0.399,0.695,0.659,���k��,5.2,��
2020/04/10,10:10,0.699,1.004,0.677,1.222,0.879,0.400,0.695,0.658,�k��,4.9,��
2020/04/10,10:20,0.699,1.004,0.678,1.222,0.877,0.398,0.695,0.658,�k��,6.3,��
2020/04/10,10:30,0.700,1.006,0.676,1.224,0.878,0.398,0.696,0.658,�k��,6.8,��
2020/04/10,10:40,0.699,1.007,0.674,1.224,0.879,0.399,0.696,0.658,���k��,7.7,�L
2020/04/10,10:50,0.699,1.005,0.676,1.222,0.878,0.402,0.695,0.657,���k��,10.8,�L
2020/04/10,11:00,0.697,1.009,0.676,1.224,0.873,0.401,0.696,0.656,��,7.0,�L
2020/04/10,11:10,0.697,1.008,0.676,1.223,0.877,0.402,0.694,0.658,��,5.2,��
2020/04/10,11:20,0.700,1.009,0.678,1.226,0.877,0.401,0.697,0.660,��,4.9,��
2020/04/10,11:30,0.701,1.005,0.676,1.225,0.880,0.401,0.697,0.658,���k��,6.7,��
2020/04/10,11:40,0.701,1.011,0.678,1.225,0.880,0.403,0.695,0.660,�k��,9.3,�L
2020/04/10,11:50,0.702,1.011,0.678,1.223,0.880,0.402,0.696,0.659,�k��,8.1,�L
2020/04/10,12:00,0.701,1.012,0.679,1.225,0.882,0.399,0.694,0.659,�k��,9.1,��
2020/04/10,12:10,0.700,1.013,0.678,1.222,0.878,0.399,0.695,0.659,�k�k��,8.5,��
2020/04/10,12:20,0.700,1.015,0.677,1.225,0.880,0.401,0.695,0.659,�k��,8.5,��
2020/04/10,12:30,0.702,1.013,0.677,1.227,0.879,0.400,0.694,0.657,�k��,5.5,��
2020/04/10,12:40,0.702,1.013,0.678,1.224,0.880,0.400,0.695,0.659,��,5.9,��
2020/04/10,12:50,0.700,1.013,0.676,1.225,0.878,0.401,0.696,0.657,�k��,5.7,��
2020/04/10,13:00,0.700,1.011,0.674,1.226,0.878,0.399,0.696,0.658,���k��,6.6,��
2020/04/10,13:10,0.700,1.012,0.672,1.224,0.878,0.399,0.695,0.659,���k��,5.9,��
2020/04/10,13:20,0.701,1.009,0.675,1.224,0.879,0.399,0.697,0.659,���k��,9.8,��
2020/04/10,13:30,0.702,1.011,0.677,1.227,0.881,0.399,0.695,0.657,��,7.3,��
2020/04/10,13:40,0.699,1.008,0.674,1.226,0.879,0.397,0.695,0.659,�k��,8.4,��
2020/04/10,13:50,0.698,1.010,0.675,1.224,0.880,0.398,0.696,0.659,�k��,6.3,��
2020/04/10,14:00,0.698,1.008,0.674,1.224,0.880,0.399,0.696,0.657,���k��,4.3,��
2020/04/10,14:10,0.698,1.010,0.675,1.222,0.878,0.398,0.695,0.659,���k��,7.3,��
2020/04/10,14:20,0.699,1.010,0.675,1.225,0.879,0.398,0.693,0.657,��,7.5,��
2020/04/10,14:30,0.701,1.008,0.676,1.225,0.880,0.398,0.696,0.659,��,7.5,��
2020/04/10,14:40,0.701,1.012,0.676,1.226,0.879,0.398,0.695,0.659,�k��,8.2,�L
2020/04/10,14:50,0.701,1.013,0.675,1.225,0.880,0.398,0.696,0.659,�k��,9.2,��
2020/04/10,15:00,0.699,1.014,0.677,1.227,0.879,0.399,0.695,0.659,���k��,7.8,��
2020/04/10,15:10,0.701,1.014,0.677,1.225,0.877,0.399,0.695,0.658,���k��,7.2,��
2020/04/10,15:20,0.703,1.015,0.676,1.226,0.878,0.400,0.694,0.659,�k��,9.5,��
2020/04/10,15:30,0.699,1.015,0.677,1.227,0.879,0.399,0.694,0.656,���k��,9.3,��
2020/04/10,15:40,0.700,1.016,0.676,1.223,0.881,0.399,0.696,0.658,���k��,9.8,��
2020/04/10,15:50,0.700,1.016,0.678,1.225,0.879,0.399,0.697,0.659,���k��,7.3,��
2020/04/10,16:00,0.698,1.017,0.677,1.223,0.881,0.400,0.696,0.659,���k��,7.6,��
2020/04/10,16:10,0.700,1.016,0.677,1.225,0.880,0.401,0.695,0.658,�k��,7.9,��
2020/04/10,16:20,0.700,1.017,0.676,1.224,0.880,0.401,0.696,0.659,�k��,8.4,��
2020/04/10,16:30,0.700,1.015,0.676,1.225,0.879,0.400,0.695,0.659,�k��,9.8,��
2020/04/10,16:40,0.700,1.016,0.676,1.227,0.880,0.400,0.697,0.659,���k��,9.5,��
2020/04/10,16:50,0.699,1.018,0.678,1.227,0.879,0.399,0.695,0.661,���k��,7.6,��
2020/04/10,17:00,0.700,1.017,0.678,1.225,0.878,0.401,0.694,0.661,�k��,6.6,��
2020/04/10,17:10,0.700,1.019,0.676,1.227,0.878,0.399,0.695,0.660,�k��,4.3,��
2020/04/10,17:20,0.700,1.018,0.679,1.226,0.881,0.400,0.695,0.663,�k��,5.9,��
2020/04/10,17:30,0.702,1.019,0.678,1.228,0.882,0.400,0.694,0.661,�k��,6.7,��
2020/04/10,17:40,0.701,1.022,0.677,1.227,0.885,0.400,0.694,0.662,�k��,5.7,��
2020/04/10,17:50,0.701,1.019,0.676,1.228,0.884,0.400,0.694,0.661,���k��,5.1,��
2020/04/10,18:00,0.703,1.019,0.679,1.228,0.883,0.400,0.695,0.661,���k��,6.2,��
2020/04/10,18:10,0.702,1.017,0.677,1.228,0.884,0.399,0.697,0.662,�k��,4.7,��
2020/04/10,18:20,0.702,1.019,0.678,1.228,0.883,0.399,0.695,0.661,�k��,4.1,��
2020/04/10,18:30,0.702,1.020,0.678,1.226,0.882,0.399,0.695,0.661,�k��,6.2,��
2020/04/10,18:40,0.702,1.018,0.677,1.227,0.880,0.400,0.694,0.661,�k��,6.9,��
2020/04/10,18:50,0.700,1.020,0.676,1.227,0.883,0.399,0.694,0.661,�k��,5.8,��
2020/04/10,19:00,0.702,1.018,0.678,1.229,0.883,0.399,0.696,0.663,�k��,6.4,��
2020/04/10,19:10,0.701,1.019,0.677,1.226,0.882,0.399,0.694,0.661,�k��,6.7,��
2020/04/10,19:20,0.701,1.019,0.678,1.227,0.881,0.399,0.696,0.660,�k��,7.4,��
2020/04/10,19:30,0.702,1.019,0.675,1.228,0.883,0.399,0.696,0.660,�k��,5.8,��
2020/04/10,19:40,0.700,1.018,0.677,1.226,0.883,0.398,0.695,0.660,�k��,5.0,��
2020/04/10,19:50,0.702,1.019,0.675,1.225,0.880,0.399,0.696,0.662,�k��,5.7,��
2020/04/10,20:00,0.701,1.017,0.678,1.227,0.883,0.399,0.697,0.661,�k��,5.7,��
2020/04/10,20:10,0.701,1.018,0.678,1.226,0.882,0.397,0.696,0.660,�k��,5.0,��
2020/04/10,20:20,0.700,1.019,0.676,1.225,0.882,0.398,0.697,0.660,�k��,5.3,��
2020/04/10,20:30,0.699,1.019,0.676,1.227,0.881,0.398,0.697,0.659,�k��,5.8,��
2020/04/10,20:40,0.698,1.021,0.677,1.228,0.881,0.397,0.697,0.660,�k��,4.1,��
2020/04/10,20:50,0.701,1.018,0.677,1.226,0.883,0.398,0.696,0.660,���k��,4.7,��
2020/04/10,21:00,0.700,1.018,0.676,1.227,0.883,0.400,0.696,0.660,���k��,4.9,��
2020/04/10,21:10,0.700,1.020,0.677,1.229,0.881,0.398,0.696,0.661,���k��,3.8,��
2020/04/10,21:20,0.700,1.016,0.674,1.226,0.882,0.399,0.698,0.660,���k��,3.8,��
2020/04/10,21:30,0.702,1.016,0.676,1.226,0.883,0.397,0.696,0.661,���k��,4.3,��
2020/04/10,21:40,0.699,1.019,0.676,1.226,0.882,0.400,0.696,0.661,��,2.9,��
2020/04/10,21:50,0.698,1.018,0.676,1.227,0.879,0.398,0.695,0.660,��,2.8,��
2020/04/10,22:00,0.697,1.016,0.676,1.229,0.882,0.400,0.698,0.660,���k��,3.2,��
2020/04/10,22:10,0.699,1.018,0.678,1.228,0.882,0.398,0.697,0.659,��,2.5,��
2020/04/10,22:20,0.700,1.018,0.676,1.228,0.880,0.399,0.695,0.662,���k��,2.9,��
2020/04/10,22:30,0.698,1.018,0.677,1.226,0.882,0.398,0.696,0.661,�k��,3.7,��
2020/04/10,22:40,0.699,1.016,0.676,1.228,0.880,0.400,0.696,0.662,�k��,2.0,��
2020/04/10,22:50,0.699,1.016,0.676,1.226,0.882,0.399,0.697,0.661,���k��,1.2,��
2020/04/10,23:00,0.699,1.017,0.676,1.227,0.881,0.397,0.696,0.661,��,1.7,��
2020/04/10,23:10,0.698,1.016,0.678,1.226,0.881,0.398,0.696,0.660,��,2.6,��
2020/04/10,23:20,0.699,1.018,0.676,1.227,0.881,0.397,0.696,0.661,���k��,2.3,��
2020/04/10,23:30,0.699,1.016,0.677,1.227,0.882,0.399,0.697,0.660,���k��,3.2,��
2020/04/10,23:40,0.700,1.018,0.675,1.227,0.882,0.398,0.696,0.660,�k��,3.3,��
2020/04/10,23:50,0.699,1.017,0.674,1.225,0.881,0.397,0.697,0.660,�k��,4.5,��
